SCP
0 1 1 0 1 2 2 2 2 2 2 3 2 2 1 0 0 0 0 0 -0 -0 -0 -0 -0 -0 -0 0 0 0 0 0
0 0 1 1 1 1 2 2 2 2 3 3 2 2 1 1 0 0 0 0 -0 0 -0 -0 -0 0 0 0 0 0 0 0
0 0 0 1 1 1 2 3 2 2 3 3 2 2 1 1 1 0 0 0 0 0 0 0 0 0 0 0 0 0 0 0
0 0 0 0 0 1 1 1 2 3 3 3 2 2 2 1 1 1 0 0 0 0 0 0 0 0 0 0 0 0 0 0
0 0 0 0 0 1 1 1 2 2 4 3 3 3 2 2 1 1 1 0 0 0 0 0 0 0 0 0 0 0 0 0
0 0 0 0 0 0 1 1 1 2 3 2 2 2 2 2 2 1 1 1 0 0 0 0 0 0 0 0 0 0 0 0
0 0 0 0 0 1 1 1 1 1 2 2 1 1 2 2 1 1 1 1 1 0 0 0 0 0 0 0 0 0 0 0
0 0 0 0 0 1 1 1 1 1 2 2 2 1 1 1 1 0 1 1 1 0 0 0 0 0 0 0 0 0 0 0
0 0 0 0 0 0 2 3 3 2 4 3 3 3 2 1 1 2 1 1 1 1 1 1 0 0 0 0 0 0 0 0
0 0 0 0 0 1 2 3 4 4 5 4 3 3 3 2 1 1 2 2 1 1 2 2 1 1 1 1 0 0 0 0
0 0 0 0 0 0 0 2 3 4 5 4 3 2 2 2 2 1 1 2 2 1 1 2 3 1 1 1 0 0 0 0
0 0 0 0 0 0 0 0 2 3 3 3 3 3 3 2 2 1 1 1 1 2 2 3 3 4 2 2 1 1 0 0
0 0 0 0 0 0 0 0 0 0 0 1 1 2 1 1 1 1 1 1 1 1 1 2 4 3 4 4 2 0 0 1
0 0 0 0 0 0 0 0 0 0 0 0 0 0 1 1 1 1 1 1 1 1 1 1 2 2 3 2 2 1 1 1
0 0 0 0 0 0 0 0 0 0 0 0 0 0 0 0 0 1 1 1 0 1 1 1 1 1 1 2 2 2 1 1
0 0 0 0 0 0 0 0 0 0 0 0 0 0 0 0 0 0 0 0 0 0 0 0 1 1 1 1 1 2 1 1
0 0 0 0 0 0 0 0 0 0 0 0 0 0 0 0 0 0 0 0 0 0 0 0 0 0 1 1 1 1 1 1
0 0 0 0 0 0 0 0 0 0 0 0 0 0 0 0 0 0 0 0 0 0 0 0 0 0 0 0 0 0 0 0
0 0 0 0 0 0 0 0 0 0 0 0 0 0 0 0 0 0 0 0 0 0 0 0 0 0 0 0 0 0 0 0
0 0 0 0 0 0 0 0 0 0 0 0 0 0 0 0 0 0 0 0 0 0 0 0 0 0 0 1 1 0 0 0
Wind_Speed_500mb
28 31 33 33 51 61 69 74 77 79 80 79 77 75 72 69 66 63 58 53 48 44 39 34 27 21 17 17 17 19 20 16
33 31 32 37 42 54 66 71 75 80 84 85 83 82 80 77 72 67 62 57 52 46 41 33 29 25 20 18 13 7 4 7
34 35 31 26 35 46 61 67 72 75 83 86 86 86 83 79 74 70 66 61 55 50 45 39 33 28 23 19 14 10 7 7
41 40 39 36 27 26 51 52 56 64 77 82 84 86 82 77 74 72 68 62 59 54 48 44 37 31 26 24 21 20 18 16
47 41 36 33 35 32 39 45 49 64 64 76 83 85 84 81 79 75 71 66 61 58 52 49 41 33 31 29 27 27 25 26
44 44 40 34 42 45 41 43 50 66 74 75 80 85 88 86 83 79 73 67 63 62 57 53 45 39 36 37 32 32 33 36
47 47 44 43 47 52 54 52 57 61 71 71 77 80 75 73 75 74 74 73 67 65 59 52 45 43 42 41 39 36 37 36
62 59 55 54 53 55 63 57 54 55 64 64 66 71 68 72 63 65 69 71 70 66 58 50 44 43 43 38 40 37 43 42
58 54 62 65 61 63 66 59 54 54 65 64 66 70 73 75 74 81 68 67 64 65 63 49 42 37 34 31 34 36 41 45
49 51 62 69 74 71 64 60 64 61 68 67 69 67 63 59 59 61 64 58 57 60 55 48 38 35 34 34 37 36 43 45
40 45 52 63 69 71 70 66 68 68 71 70 71 70 69 60 55 54 53 67 75 74 49 36 31 36 43 34 42 46 47 47
36 53 60 62 62 61 68 66 61 59 60 65 73 76 73 71 65 54 55 59 71 63 58 59 73 63 59 26 47 50 49 49
52 46 63 70 70 72 69 62 52 48 45 45 50 59 70 77 74 61 53 64 78 67 69 63 70 75 77 103 85 57 58 57
68 61 58 80 83 80 72 63 53 49 46 40 42 37 48 61 65 59 56 48 48 63 75 73 67 66 60 62 91 97 101 69
79 72 63 78 91 82 72 63 55 51 48 42 39 41 42 43 48 56 57 58 60 58 56 54 56 57 55 57 62 72 83 106
68 71 63 80 88 83 70 57 48 43 39 35 33 26 28 34 35 35 34 33 35 44 58 66 71 66 64 58 62 68 66 80
21 54 69 85 89 75 61 52 45 39 32 26 26 24 19 20 23 25 24 24 25 28 33 35 44 48 53 58 59 67 74 74
30 13 41 71 71 65 60 51 45 35 27 31 27 22 18 15 16 22 25 28 31 30 29 31 33 35 40 47 49 52 58 70
39 31 20 10 47 64 59 53 45 37 36 38 36 31 26 22 21 18 18 17 16 22 27 30 33 38 42 48 51 50 53 55
37 29 35 30 18 45 67 68 49 44 46 50 45 41 37 35 34 32 30 28 22 19 19 25 29 31 34 39 47 52 55 55
Wind_Direction_500mb
175 176 186 181 201 206 204 202 201 199 198 197 195 194 195 196 196 196 196 197 196 197 198 199 197 205 223 247 270 286 289 301
166 169 176 187 191 203 209 208 209 204 203 202 201 200 199 199 200 200 202 203 203 204 208 208 210 218 229 255 271 284 298 349
167 168 167 180 197 202 209 211 213 210 210 209 207 207 206 204 204 204 207 208 210 211 212 215 220 229 238 246 250 259 258 286
183 177 178 180 186 203 206 214 219 218 220 218 218 217 214 212 211 211 213 213 215 218 221 223 225 233 245 247 252 255 259 278
214 211 202 210 201 205 210 207 223 226 226 226 222 221 221 218 217 216 219 218 223 225 226 231 232 236 247 252 260 269 281 290
236 223 224 220 215 207 214 224 235 227 225 224 224 223 222 223 223 222 222 226 227 231 231 235 238 242 250 259 264 273 283 293
238 233 236 230 218 218 211 219 230 228 224 226 226 224 225 230 228 229 228 226 232 238 238 239 242 247 249 261 269 278 289 295
243 240 235 239 228 221 218 220 230 227 224 225 227 228 220 220 238 240 235 235 230 231 236 240 241 243 252 257 272 282 287 291
240 242 239 235 224 215 212 215 218 222 216 219 223 227 227 215 218 223 252 235 222 223 230 229 226 236 249 261 268 279 287 290
228 232 235 228 220 212 213 213 210 216 219 222 223 225 228 230 219 216 226 232 237 230 219 222 226 235 244 258 265 283 290 289
219 213 215 214 208 208 209 211 210 214 217 220 223 226 232 234 232 232 234 232 224 231 220 239 231 245 249 267 277 278 283 281
242 227 216 215 220 218 215 213 209 213 220 224 228 231 238 244 241 239 242 233 228 235 240 236 236 234 254 266 278 276 274 276
279 242 231 225 220 213 213 214 214 217 222 225 229 234 234 239 245 251 249 243 241 243 241 246 257 246 247 246 247 278 295 275
281 266 247 229 211 208 208 211 206 209 217 232 248 245 241 242 243 246 245 251 251 243 242 247 239 243 245 246 244 246 253 264
268 259 244 225 205 201 201 204 201 207 214 226 241 244 245 247 250 251 252 249 249 243 243 247 255 251 253 261 261 253 242 247
260 242 238 214 201 198 193 193 198 209 221 236 251 256 245 242 242 244 245 245 245 245 247 248 248 254 263 266 261 259 257 266
256 231 213 202 193 192 193 197 204 213 222 231 223 221 227 239 245 251 256 255 254 250 246 249 255 258 259 265 265 261 263 266
51 101 182 183 186 193 197 203 211 214 197 203 209 213 227 234 240 245 252 258 256 258 259 258 258 260 261 267 267 267 271 272
28 45 50 239 204 195 202 200 198 194 201 206 208 212 219 226 235 242 252 260 267 267 267 271 270 268 267 270 267 269 269 269
306 342 347 2 343 241 210 205 203 223 224 214 216 218 222 228 235 246 251 252 259 284 293 293 282 279 282 282 279 275 277 272
Wind_Speed_850mb
28 31 33 33 51 61 69 74 77 79 80 79 77 75 72 69 66 63 58 53 48 44 39 34 27 21 17 17 17 19 20 16
33 31 32 37 42 54 66 71 75 80 84 85 83 82 80 77 72 67 62 57 52 46 41 33 29 25 20 18 13 7 4 7
34 35 31 26 35 46 61 67 72 75 83 86 86 86 83 79 74 70 66 61 55 50 45 39 33 28 23 19 14 10 7 7
41 40 39 36 27 26 51 52 56 64 77 82 84 86 82 77 74 72 68 62 59 54 48 44 37 31 26 24 21 20 18 16
47 41 36 33 35 32 39 45 49 64 64 76 83 85 84 81 79 75 71 66 61 58 52 49 41 33 31 29 27 27 25 26
44 44 40 34 42 45 41 43 50 66 74 75 80 85 88 86 83 79 73 67 63 62 57 53 45 39 36 37 32 32 33 36
47 47 44 43 47 52 54 52 57 61 71 71 77 80 75 73 75 74 74 73 67 65 59 52 45 43 42 41 39 36 37 36
62 59 55 54 53 55 63 57 54 55 64 64 66 71 68 72 63 65 69 71 70 66 58 50 44 43 43 38 40 37 43 42
58 54 62 65 61 63 66 59 54 54 65 64 66 70 73 75 74 81 68 67 64 65 63 49 42 37 34 31 34 36 41 45
49 51 62 69 74 71 64 60 64 61 68 67 69 67 63 59 59 61 64 58 57 60 55 48 38 35 34 34 37 36 43 45
40 45 52 63 69 71 70 66 68 68 71 70 71 70 69 60 55 54 53 67 75 74 49 36 31 36 43 34 42 46 47 47
36 53 60 62 62 61 68 66 61 59 60 65 73 76 73 71 65 54 55 59 71 63 58 59 73 63 59 26 47 50 49 49
52 46 63 70 70 72 69 62 52 48 45 45 50 59 70 77 74 61 53 64 78 67 69 63 70 75 77 103 85 57 58 57
68 61 58 80 83 80 72 63 53 49 46 40 42 37 48 61 65 59 56 48 48 63 75 73 67 66 60 62 91 97 101 69
79 72 63 78 91 82 72 63 55 51 48 42 39 41 42 43 48 56 57 58 60 58 56 54 56 57 55 57 62 72 83 106
68 71 63 80 88 83 70 57 48 43 39 35 33 26 28 34 35 35 34 33 35 44 58 66 71 66 64 58 62 68 66 80
21 54 69 85 89 75 61 52 45 39 32 26 26 24 19 20 23 25 24 24 25 28 33 35 44 48 53 58 59 67 74 74
30 13 41 71 71 65 60 51 45 35 27 31 27 22 18 15 16 22 25 28 31 30 29 31 33 35 40 47 49 52 58 70
39 31 20 10 47 64 59 53 45 37 36 38 36 31 26 22 21 18 18 17 16 22 27 30 33 38 42 48 51 50 53 55
37 29 35 30 18 45 67 68 49 44 46 50 45 41 37 35 34 32 30 28 22 19 19 25 29 31 34 39 47 52 55 55
Wind_Direction_850mb
175 176 186 181 201 206 204 202 201 199 198 197 195 194 195 196 196 196 196 197 196 197 198 199 197 205 223 247 270 286 289 301
166 169 176 187 191 203 209 208 209 204 203 202 201 200 199 199 200 200 202 203 203 204 208 208 210 218 229 255 271 284 298 349
167 168 167 180 197 202 209 211 213 210 210 209 207 207 206 204 204 204 207 208 210 211 212 215 220 229 238 246 250 259 258 286
183 177 178 180 186 203 206 214 219 218 220 218 218 217 214 212 211 211 213 213 215 218 221 223 225 233 245 247 252 255 259 278
214 211 202 210 201 205 210 207 223 226 226 226 222 221 221 218 217 216 219 218 223 225 226 231 232 236 247 252 260 269 281 290
236 223 224 220 215 207 214 224 235 227 225 224 224 223 222 223 223 222 222 226 227 231 231 235 238 242 250 259 264 273 283 293
238 233 236 230 218 218 211 219 230 228 224 226 226 224 225 230 228 229 228 226 232 238 238 239 242 247 249 261 269 278 289 295
243 240 235 239 228 221 218 220 230 227 224 225 227 228 220 220 238 240 235 235 230 231 236 240 241 243 252 257 272 282 287 291
240 242 239 235 224 215 212 215 218 222 216 219 223 227 227 215 218 223 252 235 222 223 230 229 226 236 249 261 268 279 287 290
228 232 235 228 220 212 213 213 210 216 219 222 223 225 228 230 219 216 226 232 237 230 219 222 226 235 244 258 265 283 290 289
219 213 215 214 208 208 209 211 210 214 217 220 223 226 232 234 232 232 234 232 224 231 220 239 231 245 249 267 277 278 283 281
242 227 216 215 220 218 215 213 209 213 220 224 228 231 238 244 241 239 242 233 228 235 240 236 236 234 254 266 278 276 274 276
279 242 231 225 220 213 213 214 214 217 222 225 229 234 234 239 245 251 249 243 241 243 241 246 257 246 247 246 247 278 295 275
281 266 247 229 211 208 208 211 206 209 217 232 248 245 241 242 243 246 245 251 251 243 242 247 239 243 245 246 244 246 253 264
268 259 244 225 205 201 201 204 201 207 214 226 241 244 245 247 250 251 252 249 249 243 243 247 255 251 253 261 261 253 242 247
260 242 238 214 201 198 193 193 198 209 221 236 251 256 245 242 242 244 245 245 245 245 247 248 248 254 263 266 261 259 257 266
256 231 213 202 193 192 193 197 204 213 222 231 223 221 227 239 245 251 256 255 254 250 246 249 255 258 259 265 265 261 263 266
51 101 182 183 186 193 197 203 211 214 197 203 209 213 227 234 240 245 252 258 256 258 259 258 258 260 261 267 267 267 271 272
28 45 50 239 204 195 202 200 198 194 201 206 208 212 219 226 235 242 252 260 267 267 267 271 270 268 267 270 267 269 269 269
306 342 347 2 343 241 210 205 203 223 224 214 216 218 222 228 235 246 251 252 259 284 293 293 282 279 282 282 279 275 277 272